owner,sensor,date,latitude,longitude,vertical_datum,sea_water_temperature,qcFlag 
TCOON,ioos:station:TCOON:005:1,2011-08-01T00:00:00Z,27.6346,-97.2370,0.0,31.2,2 
TCOON,ioos:station:TCOON:005:1,2011-08-01T01:00:00Z,27.6346,-97.2370,0.0,31.3,2 
TCOON,ioos:station:TCOON:005:1,2011-08-01T02:00:00Z,27.6346,-97.2370,0.0,31.4,2 
TCOON,ioos:station:TCOON:005:1,2011-08-01T03:00:00Z,27.6346,-97.2370,0.0,31.5,2 
TCOON,ioos:station:TCOON:005:1,2011-08-01T04:00:00Z,27.6346,-97.2370,0.0,31.6,2 
TCOON,ioos:station:TCOON:005:1,2011-08-01T05:00:00Z,27.6346,-97.2370,0.0,31.7,2 
TCOON,ioos:station:TCOON:005:1,2011-08-01T06:00:00Z,27.6346,-97.2370,0.0,31.7,2 
TCOON,ioos:station:TCOON:005:1,2011-08-01T07:00:00Z,27.6346,-97.2370,0.0,31.7,2 
TCOON,ioos:station:TCOON:005:1,2011-08-01T08:00:00Z,27.6346,-97.2370,0.0,31.6,2 
TCOON,ioos:station:TCOON:005:1,2011-08-01T09:00:00Z,27.6346,-97.2370,0.0,31.5,2 
TCOON,ioos:station:TCOON:005:1,2011-08-01T10:00:00Z,27.6346,-97.2370,0.0,31.4,2 
TCOON,ioos:station:TCOON:005:1,2011-08-01T11:00:00Z,27.6346,-97.2370,0.0,31.3,2 
TCOON,ioos:station:TCOON:005:1,2011-08-01T12:00:00Z,27.6346,-97.2370,0.0,31.2,2 
TCOON,ioos:station:TCOON:005:1,2011-08-01T13:00:00Z,27.6346,-97.2370,0.0,31.1,2 
TCOON,ioos:station:TCOON:005:1,2011-08-01T14:00:00Z,27.6346,-97.2370,0.0,30.9,11111222 
TCOON,ioos:station:TCOON:005:1,2011-08-01T15:00:00Z,27.6346,-97.2370,0.0,30.8,11111222 
TCOON,ioos:station:TCOON:005:1,2011-08-01T16:00:00Z,27.6346,-97.2370,0.0,30.8,2 
TCOON,ioos:station:TCOON:005:1,2011-08-01T17:00:00Z,27.6346,-97.2370,0.0,30.8,2 
TCOON,ioos:station:TCOON:005:1,2011-08-01T18:00:00Z,27.6346,-97.2370,0.0,31.1,2 
TCOON,ioos:station:TCOON:005:1,2011-08-01T19:00:00Z,27.6346,-97.2370,0.0,30.1,2 
TCOON,ioos:station:TCOON:005:1,2011-08-01T20:00:00Z,27.6346,-97.2370,0.0,30.2,2 
TCOON,ioos:station:TCOON:005:1,2011-08-01T21:00:00Z,27.6346,-97.2370,0.0,31.3,2 
TCOON,ioos:station:TCOON:005:1,2011-08-01T22:00:00Z,27.6346,-97.2370,0.0,28.4,2 
TCOON,ioos:station:TCOON:005:1,2011-08-01T23:00:00Z,27.6346,-97.2370,0.0,30.2,2 
TCOON,ioos:station:TCOON:005:1,2011-08-02T00:00:00Z,27.6346,-97.2370,0.0,31.0,2 
TCOON,ioos:station:TCOON:005:1,2011-08-02T01:00:00Z,27.6346,-97.2370,0.0,31.1,2 
TCOON,ioos:station:TCOON:005:1,2011-08-02T02:00:00Z,27.6346,-97.2370,0.0,30.7,2 
TCOON,ioos:station:TCOON:005:1,2011-08-02T03:00:00Z,27.6346,-97.2370,0.0,30.3,2 
TCOON,ioos:station:TCOON:005:1,2011-08-02T04:00:00Z,27.6346,-97.2370,0.0,29.8,2 
TCOON,ioos:station:TCOON:005:1,2011-08-02T05:00:00Z,27.6346,-97.2370,0.0,29.5,2 
TCOON,ioos:station:TCOON:005:1,2011-08-02T06:00:00Z,27.6346,-97.2370,0.0,29.0,2 
TCOON,ioos:station:TCOON:005:1,2011-08-02T07:00:00Z,27.6346,-97.2370,0.0,28.7,2 
TCOON,ioos:station:TCOON:005:1,2011-08-02T08:00:00Z,27.6346,-97.2370,0.0,28.3,2 
TCOON,ioos:station:TCOON:005:1,2011-08-02T09:00:00Z,27.6346,-97.2370,0.0,28.2,2 
TCOON,ioos:station:TCOON:005:1,2011-08-02T10:00:00Z,27.6346,-97.2370,0.0,28.3,2 
TCOON,ioos:station:TCOON:005:1,2011-08-02T11:00:00Z,27.6346,-97.2370,0.0,27.9,2 
TCOON,ioos:station:TCOON:005:1,2011-08-02T12:00:00Z,27.6346,-97.2370,0.0,27.9,2 
TCOON,ioos:station:TCOON:005:1,2011-08-02T13:00:00Z,27.6346,-97.2370,0.0,28.1,2 
TCOON,ioos:station:TCOON:005:1,2011-08-02T14:00:00Z,27.6346,-97.2370,0.0,28.4,2 
TCOON,ioos:station:TCOON:005:1,2011-08-02T15:00:00Z,27.6346,-97.2370,0.0,28.9,2 
TCOON,ioos:station:TCOON:005:1,2011-08-02T16:00:00Z,27.6346,-97.2370,0.0,29.8,2 
TCOON,ioos:station:TCOON:005:1,2011-08-02T17:00:00Z,27.6346,-97.2370,0.0,30.9,2 
TCOON,ioos:station:TCOON:005:1,2011-08-02T18:00:00Z,27.6346,-97.2370,0.0,30.8,2 
TCOON,ioos:station:TCOON:005:1,2011-08-02T19:00:00Z,27.6346,-97.2370,0.0,31.7,2 
TCOON,ioos:station:TCOON:005:1,2011-08-02T20:00:00Z,27.6346,-97.2370,0.0,33.0,2 
TCOON,ioos:station:TCOON:005:1,2011-08-02T21:00:00Z,27.6346,-97.2370,0.0,33.1,2 
TCOON,ioos:station:TCOON:005:1,2011-08-02T22:00:00Z,27.6346,-97.2370,0.0,33.2,2 
TCOON,ioos:station:TCOON:005:1,2011-08-02T23:00:00Z,27.6346,-97.2370,0.0,33.3,2 
TCOON,ioos:station:TCOON:005:1,2011-08-03T00:00:00Z,27.6346,-97.2370,0.0,33.2,2 
TCOON,ioos:station:TCOON:005:1,2011-08-03T01:00:00Z,27.6346,-97.2370,0.0,32.7,2 
TCOON,ioos:station:TCOON:005:1,2011-08-03T02:00:00Z,27.6346,-97.2370,0.0,32.0,2 
TCOON,ioos:station:TCOON:005:1,2011-08-03T03:00:00Z,27.6346,-97.2370,0.0,31.5,2 
TCOON,ioos:station:TCOON:005:1,2011-08-03T04:00:00Z,27.6346,-97.2370,0.0,30.9,2 
TCOON,ioos:station:TCOON:005:1,2011-08-03T05:00:00Z,27.6346,-97.2370,0.0,30.2,2 
TCOON,ioos:station:TCOON:005:1,2011-08-03T06:00:00Z,27.6346,-97.2370,0.0,29.7,2 
TCOON,ioos:station:TCOON:005:1,2011-08-03T07:00:00Z,27.6346,-97.2370,0.0,29.5,2 
TCOON,ioos:station:TCOON:005:1,2011-08-03T08:00:00Z,27.6346,-97.2370,0.0,29.0,2 
TCOON,ioos:station:TCOON:005:1,2011-08-03T09:00:00Z,27.6346,-97.2370,0.0,28.6,2 
TCOON,ioos:station:TCOON:005:1,2011-08-03T10:00:00Z,27.6346,-97.2370,0.0,28.3,2 
TCOON,ioos:station:TCOON:005:1,2011-08-03T11:00:00Z,27.6346,-97.2370,0.0,28.1,2 
TCOON,ioos:station:TCOON:005:1,2011-08-03T12:00:00Z,27.6346,-97.2370,0.0,27.9,2 
TCOON,ioos:station:TCOON:005:1,2011-08-03T13:00:00Z,27.6346,-97.2370,0.0,27.7,2 
TCOON,ioos:station:TCOON:005:1,2011-08-03T14:00:00Z,27.6346,-97.2370,0.0,28.2,2 
TCOON,ioos:station:TCOON:005:1,2011-08-03T15:00:00Z,27.6346,-97.2370,0.0,29.2,2 
TCOON,ioos:station:TCOON:005:1,2011-08-03T16:00:00Z,27.6346,-97.2370,0.0,30.3,2 
TCOON,ioos:station:TCOON:005:1,2011-08-03T17:00:00Z,27.6346,-97.2370,0.0,30.5,2 
TCOON,ioos:station:TCOON:005:1,2011-08-03T18:00:00Z,27.6346,-97.2370,0.0,31.4,2 
TCOON,ioos:station:TCOON:005:1,2011-08-03T19:00:00Z,27.6346,-97.2370,0.0,31.7,2 
TCOON,ioos:station:TCOON:005:1,2011-08-03T20:00:00Z,27.6346,-97.2370,0.0,32.6,2 
TCOON,ioos:station:TCOON:005:1,2011-08-03T21:00:00Z,27.6346,-97.2370,0.0,33.4,2 
TCOON,ioos:station:TCOON:005:1,2011-08-03T22:00:00Z,27.6346,-97.2370,0.0,33.5,2 
TCOON,ioos:station:TCOON:005:1,2011-08-03T23:00:00Z,27.6346,-97.2370,0.0,33.1,2 
TCOON,ioos:station:TCOON:005:1,2011-08-04T00:00:00Z,27.6346,-97.2370,0.0,32.5,2 
TCOON,ioos:station:TCOON:005:1,2011-08-04T01:00:00Z,27.6346,-97.2370,0.0,30.9,2 
TCOON,ioos:station:TCOON:005:1,2011-08-04T02:00:00Z,27.6346,-97.2370,0.0,29.9,2 
TCOON,ioos:station:TCOON:005:1,2011-08-04T03:00:00Z,27.6346,-97.2370,0.0,29.5,2 
TCOON,ioos:station:TCOON:005:1,2011-08-04T04:00:00Z,27.6346,-97.2370,0.0,29.4,2 
TCOON,ioos:station:TCOON:005:1,2011-08-04T05:00:00Z,27.6346,-97.2370,0.0,29.2,2 
TCOON,ioos:station:TCOON:005:1,2011-08-04T06:00:00Z,27.6346,-97.2370,0.0,29.1,2 
TCOON,ioos:station:TCOON:005:1,2011-08-04T07:00:00Z,27.6346,-97.2370,0.0,28.9,2 
TCOON,ioos:station:TCOON:005:1,2011-08-04T08:00:00Z,27.6346,-97.2370,0.0,28.8,2 
TCOON,ioos:station:TCOON:005:1,2011-08-04T09:00:00Z,27.6346,-97.2370,0.0,28.6,2 
TCOON,ioos:station:TCOON:005:1,2011-08-04T10:00:00Z,27.6346,-97.2370,0.0,28.5,2 
TCOON,ioos:station:TCOON:005:1,2011-08-04T11:00:00Z,27.6346,-97.2370,0.0,28.3,2 
TCOON,ioos:station:TCOON:005:1,2011-08-04T12:00:00Z,27.6346,-97.2370,0.0,28.2,2 
TCOON,ioos:station:TCOON:005:1,2011-08-04T13:00:00Z,27.6346,-97.2370,0.0,28.6,2 
TCOON,ioos:station:TCOON:005:1,2011-08-04T14:00:00Z,27.6346,-97.2370,0.0,29.4,2 
TCOON,ioos:station:TCOON:005:1,2011-08-04T15:00:00Z,27.6346,-97.2370,0.0,30.6,2 
TCOON,ioos:station:TCOON:005:1,2011-08-04T16:00:00Z,27.6346,-97.2370,0.0,31.9,2 
TCOON,ioos:station:TCOON:005:1,2011-08-04T17:00:00Z,27.6346,-97.2370,0.0,32.3,2 
TCOON,ioos:station:TCOON:005:1,2011-08-04T18:00:00Z,27.6346,-97.2370,0.0,32.4,2 
TCOON,ioos:station:TCOON:005:1,2011-08-04T19:00:00Z,27.6346,-97.2370,0.0,32.5,2 
TCOON,ioos:station:TCOON:005:1,2011-08-04T20:00:00Z,27.6346,-97.2370,0.0,33.4,2 
TCOON,ioos:station:TCOON:005:1,2011-08-04T21:00:00Z,27.6346,-97.2370,0.0,33.5,2 
TCOON,ioos:station:TCOON:005:1,2011-08-04T22:00:00Z,27.6346,-97.2370,0.0,33.9,2 
TCOON,ioos:station:TCOON:005:1,2011-08-04T23:00:00Z,27.6346,-97.2370,0.0,33.8,2 
TCOON,ioos:station:TCOON:005:1,2011-08-05T00:00:00Z,27.6346,-97.2370,0.0,33.1,2 
TCOON,ioos:station:TCOON:005:1,2011-08-05T01:00:00Z,27.6346,-97.2370,0.0,31.5,2 
TCOON,ioos:station:TCOON:005:1,2011-08-05T02:00:00Z,27.6346,-97.2370,0.0,30.4,2 
TCOON,ioos:station:TCOON:005:1,2011-08-05T03:00:00Z,27.6346,-97.2370,0.0,30.0,2 
TCOON,ioos:station:TCOON:005:1,2011-08-05T04:00:00Z,27.6346,-97.2370,0.0,29.6,2 
TCOON,ioos:station:TCOON:005:1,2011-08-05T05:00:00Z,27.6346,-97.2370,0.0,29.5,11111222 
TCOON,ioos:station:TCOON:005:1,2011-08-05T06:00:00Z,27.6346,-97.2370,0.0,29.5,2 
TCOON,ioos:station:TCOON:005:1,2011-08-05T07:00:00Z,27.6346,-97.2370,0.0,29.4,2 
TCOON,ioos:station:TCOON:005:1,2011-08-05T08:00:00Z,27.6346,-97.2370,0.0,29.2,2 
TCOON,ioos:station:TCOON:005:1,2011-08-05T09:00:00Z,27.6346,-97.2370,0.0,29.1,2 
TCOON,ioos:station:TCOON:005:1,2011-08-05T10:00:00Z,27.6346,-97.2370,0.0,29.0,2 
TCOON,ioos:station:TCOON:005:1,2011-08-05T11:00:00Z,27.6346,-97.2370,0.0,28.9,2 
TCOON,ioos:station:TCOON:005:1,2011-08-05T12:00:00Z,27.6346,-97.2370,0.0,28.8,2 
TCOON,ioos:station:TCOON:005:1,2011-08-05T13:00:00Z,27.6346,-97.2370,0.0,29.2,2 
TCOON,ioos:station:TCOON:005:1,2011-08-05T14:00:00Z,27.6346,-97.2370,0.0,30.0,11111222 
TCOON,ioos:station:TCOON:005:1,2011-08-05T15:00:00Z,27.6346,-97.2370,0.0,30.7,11111222 
TCOON,ioos:station:TCOON:005:1,2011-08-05T16:00:00Z,27.6346,-97.2370,0.0,31.7,11111222 
TCOON,ioos:station:TCOON:005:1,2011-08-05T17:00:00Z,27.6346,-97.2370,0.0,32.3,11111222 
TCOON,ioos:station:TCOON:005:1,2011-08-05T18:00:00Z,27.6346,-97.2370,0.0,32.6,2 
TCOON,ioos:station:TCOON:005:1,2011-08-05T19:00:00Z,27.6346,-97.2370,0.0,33.0,2 
TCOON,ioos:station:TCOON:005:1,2011-08-05T20:00:00Z,27.6346,-97.2370,0.0,33.7,2 
TCOON,ioos:station:TCOON:005:1,2011-08-05T21:00:00Z,27.6346,-97.2370,0.0,34.4,2 
TCOON,ioos:station:TCOON:005:1,2011-08-05T22:00:00Z,27.6346,-97.2370,0.0,34.5,2 
TCOON,ioos:station:TCOON:005:1,2011-08-05T23:00:00Z,27.6346,-97.2370,0.0,34.3,2 
TCOON,ioos:station:TCOON:005:1,2011-08-06T00:00:00Z,27.6346,-97.2370,0.0,33.6,2 
TCOON,ioos:station:TCOON:005:1,2011-08-06T01:00:00Z,27.6346,-97.2370,0.0,31.9,2 
TCOON,ioos:station:TCOON:005:1,2011-08-06T02:00:00Z,27.6346,-97.2370,0.0,30.6,2 
TCOON,ioos:station:TCOON:005:1,2011-08-06T03:00:00Z,27.6346,-97.2370,0.0,30.0,2 
TCOON,ioos:station:TCOON:005:1,2011-08-06T04:00:00Z,27.6346,-97.2370,0.0,29.8,2 
TCOON,ioos:station:TCOON:005:1,2011-08-06T05:00:00Z,27.6346,-97.2370,0.0,29.6,2 
TCOON,ioos:station:TCOON:005:1,2011-08-06T06:00:00Z,27.6346,-97.2370,0.0,29.5,2 
TCOON,ioos:station:TCOON:005:1,2011-08-06T07:00:00Z,27.6346,-97.2370,0.0,29.5,2 
TCOON,ioos:station:TCOON:005:1,2011-08-06T08:00:00Z,27.6346,-97.2370,0.0,29.4,2 
TCOON,ioos:station:TCOON:005:1,2011-08-06T09:00:00Z,27.6346,-97.2370,0.0,29.3,2 
TCOON,ioos:station:TCOON:005:1,2011-08-06T10:00:00Z,27.6346,-97.2370,0.0,29.2,2 
TCOON,ioos:station:TCOON:005:1,2011-08-06T11:00:00Z,27.6346,-97.2370,0.0,29.2,2 
TCOON,ioos:station:TCOON:005:1,2011-08-06T12:00:00Z,27.6346,-97.2370,0.0,29.2,2 
TCOON,ioos:station:TCOON:005:1,2011-08-06T13:00:00Z,27.6346,-97.2370,0.0,29.4,2 
TCOON,ioos:station:TCOON:005:1,2011-08-06T14:00:00Z,27.6346,-97.2370,0.0,29.9,2 
TCOON,ioos:station:TCOON:005:1,2011-08-06T15:00:00Z,27.6346,-97.2370,0.0,30.5,2 
TCOON,ioos:station:TCOON:005:1,2011-08-06T16:00:00Z,27.6346,-97.2370,0.0,31.1,2 
TCOON,ioos:station:TCOON:005:1,2011-08-06T17:00:00Z,27.6346,-97.2370,0.0,32.0,2 
TCOON,ioos:station:TCOON:005:1,2011-08-06T18:00:00Z,27.6346,-97.2370,0.0,32.3,2 
TCOON,ioos:station:TCOON:005:1,2011-08-06T19:00:00Z,27.6346,-97.2370,0.0,32.7,2 
TCOON,ioos:station:TCOON:005:1,2011-08-06T20:00:00Z,27.6346,-97.2370,0.0,33.7,2 
TCOON,ioos:station:TCOON:005:1,2011-08-06T21:00:00Z,27.6346,-97.2370,0.0,34.5,2 
TCOON,ioos:station:TCOON:005:1,2011-08-06T22:00:00Z,27.6346,-97.2370,0.0,33.9,2 
TCOON,ioos:station:TCOON:005:1,2011-08-06T23:00:00Z,27.6346,-97.2370,0.0,34.2,2 
TCOON,ioos:station:TCOON:005:1,2011-08-07T00:00:00Z,27.6346,-97.2370,0.0,33.4,2 
TCOON,ioos:station:TCOON:005:1,2011-08-07T01:00:00Z,27.6346,-97.2370,0.0,31.8,2 
TCOON,ioos:station:TCOON:005:1,2011-08-07T02:00:00Z,27.6346,-97.2370,0.0,30.7,2 
TCOON,ioos:station:TCOON:005:1,2011-08-07T03:00:00Z,27.6346,-97.2370,0.0,30.2,2 
TCOON,ioos:station:TCOON:005:1,2011-08-07T04:00:00Z,27.6346,-97.2370,0.0,30.1,2 
TCOON,ioos:station:TCOON:005:1,2011-08-07T05:00:00Z,27.6346,-97.2370,0.0,29.9,2 
TCOON,ioos:station:TCOON:005:1,2011-08-07T06:00:00Z,27.6346,-97.2370,0.0,29.7,2 
TCOON,ioos:station:TCOON:005:1,2011-08-07T07:00:00Z,27.6346,-97.2370,0.0,29.7,2 
TCOON,ioos:station:TCOON:005:1,2011-08-07T08:00:00Z,27.6346,-97.2370,0.0,29.6,2 
TCOON,ioos:station:TCOON:005:1,2011-08-07T09:00:00Z,27.6346,-97.2370,0.0,29.5,2 
TCOON,ioos:station:TCOON:005:1,2011-08-07T10:00:00Z,27.6346,-97.2370,0.0,29.4,2 
TCOON,ioos:station:TCOON:005:1,2011-08-07T11:00:00Z,27.6346,-97.2370,0.0,29.4,2 
TCOON,ioos:station:TCOON:005:1,2011-08-07T12:00:00Z,27.6346,-97.2370,0.0,29.3,2 
TCOON,ioos:station:TCOON:005:1,2011-08-07T13:00:00Z,27.6346,-97.2370,0.0,29.5,2 
TCOON,ioos:station:TCOON:005:1,2011-08-07T14:00:00Z,27.6346,-97.2370,0.0,30.2,2 
TCOON,ioos:station:TCOON:005:1,2011-08-07T15:00:00Z,27.6346,-97.2370,0.0,30.9,2 
TCOON,ioos:station:TCOON:005:1,2011-08-07T16:00:00Z,27.6346,-97.2370,0.0,31.6,2 
TCOON,ioos:station:TCOON:005:1,2011-08-07T17:00:00Z,27.6346,-97.2370,0.0,32.3,2 
TCOON,ioos:station:TCOON:005:1,2011-08-07T18:00:00Z,27.6346,-97.2370,0.0,32.6,2 
TCOON,ioos:station:TCOON:005:1,2011-08-07T19:00:00Z,27.6346,-97.2370,0.0,32.9,2 
TCOON,ioos:station:TCOON:005:1,2011-08-07T20:00:00Z,27.6346,-97.2370,0.0,34.2,2 
TCOON,ioos:station:TCOON:005:1,2011-08-07T21:00:00Z,27.6346,-97.2370,0.0,35.5,2 
TCOON,ioos:station:TCOON:005:1,2011-08-07T22:00:00Z,27.6346,-97.2370,0.0,36.2,2 
TCOON,ioos:station:TCOON:005:1,2011-08-07T23:00:00Z,27.6346,-97.2370,0.0,36.5,2 
TCOON,ioos:station:TCOON:005:1,2011-08-08T00:00:00Z,27.6346,-97.2370,0.0,36.8,2 
TCOON,ioos:station:TCOON:005:1,2011-08-11T14:00:00Z,27.6346,-97.2370,0.0,29.8,2 
TCOON,ioos:station:TCOON:005:1,2011-08-11T15:00:00Z,27.6346,-97.2370,0.0,30.8,2 
TCOON,ioos:station:TCOON:005:1,2011-08-11T16:00:00Z,27.6346,-97.2370,0.0,31.8,2 
TCOON,ioos:station:TCOON:005:1,2011-08-11T17:00:00Z,27.6346,-97.2370,0.0,32.5,2 
TCOON,ioos:station:TCOON:005:1,2011-08-11T18:00:00Z,27.6346,-97.2370,0.0,33.2,2 
TCOON,ioos:station:TCOON:005:1,2011-08-11T19:00:00Z,27.6346,-97.2370,0.0,33.5,2 
TCOON,ioos:station:TCOON:005:1,2011-08-11T20:00:00Z,27.6346,-97.2370,0.0,34.2,2 
TCOON,ioos:station:TCOON:005:1,2011-08-11T21:00:00Z,27.6346,-97.2370,0.0,34.4,2 
TCOON,ioos:station:TCOON:005:1,2011-08-11T22:00:00Z,27.6346,-97.2370,0.0,34.3,2 
TCOON,ioos:station:TCOON:005:1,2011-08-11T23:00:00Z,27.6346,-97.2370,0.0,33.9,2 
TCOON,ioos:station:TCOON:005:1,2011-08-12T00:00:00Z,27.6346,-97.2370,0.0,32.7,2 
TCOON,ioos:station:TCOON:005:1,2011-08-12T01:00:00Z,27.6346,-97.2370,0.0,31.1,2 
TCOON,ioos:station:TCOON:005:1,2011-08-12T02:00:00Z,27.6346,-97.2370,0.0,30.3,2 
TCOON,ioos:station:TCOON:005:1,2011-08-12T03:00:00Z,27.6346,-97.2370,0.0,29.9,2 
TCOON,ioos:station:TCOON:005:1,2011-08-12T04:00:00Z,27.6346,-97.2370,0.0,29.7,2 
TCOON,ioos:station:TCOON:005:1,2011-08-12T05:00:00Z,27.6346,-97.2370,0.0,29.5,2 
TCOON,ioos:station:TCOON:005:1,2011-08-12T06:00:00Z,27.6346,-97.2370,0.0,29.4,2 
TCOON,ioos:station:TCOON:005:1,2011-08-12T07:00:00Z,27.6346,-97.2370,0.0,29.1,2 
TCOON,ioos:station:TCOON:005:1,2011-08-12T08:00:00Z,27.6346,-97.2370,0.0,29.0,2 
TCOON,ioos:station:TCOON:005:1,2011-08-31T21:00:00Z,27.6346,-97.2370,0.0,30.8,2 
 
DISCLAIMER: The Gulf of Mexico Coastal and Ocean Observing (GCOOS) Data Portal aggregates data from the regional data providers for the convenience of all data users. Data published on this website should not be used for navigation or certain other uses as we cannot guarantee data accuracy or availability. The data and delivery services are provided 'as is' without warranty of any kind. Data Source: Gulf of Mexico Coastal Ocean Observing System Data Portal (http://data.gcoos.org/) 
